Location: *
(49.3500°N, 12.6000°E)
Time: 02:36:45
(UTC+00:00)

STARLINK-76 - Pass Details

Date: 18 October 2019
Orbit: 548 x 551 km, 53.0° (Epoch: 14 November)

Event Time Altitude Azimuth Distance (km) Brightness Sun altitude
Rises 16:46:14 0° 248° (WSW) 2,710 9.1 -6.0°
Reaches altitude 10° 16:48:27 10° 249° (WSW) 1,819 7.9 -6.3°
Maximum altitude 16:52:35 83° 336° (NNW) 558 3.7 -7.0°
Drops below altitude 10° 16:56:45 10° 67° (ENE) 1,826 5.7 -7.7°
Enters shadow 16:56:59 - 67° (ENE) 1,920 5.8 -7.7°
